Regional Weather Roundup
Issued by NWS Sioux Falls, SD

Home | Current Version | Previous Version | Graphics & Text | Print | Product List | Glossary Off
Versions: 1 2 3 4 5 6 7 8 9 10 11 12 13 14 15 16 17 18 19 20 21 22 23 24 25 26 27 28 29 30 31 32 33 34 35 36 37 38 39 40 41 42 43 44 45 46 47 48 49 50

000
ASUS43 KFSD 120710
RWRFSD

WEATHER ROUNDUP FOR SE SOUTH DAKOTA/SW MINNESOTA/NW IOWA
NATIONAL WEATHER SERVICE SIOUX FALLS SD
100 AM CST TUE DEC 12 2017

NOTE: "FAIR" INDICATES FEW OR NO CLOUDS BELOW 12,000 FEET WITH NO
SIGNIFICANT WEATHER AND OR OBSTRUCTIONS TO VISIBILITY.


SDZ038>040-050-052>070-120800-
SOUTHEAST SOUTH DAKOTA

CITY           SKY/WX    TMP DP  RH WIND       PRES   REMARKS
BROOKINGS      CLOUDY    12   9  87 W6        30.31F WCI   3
CHAMBERLAIN    MOCLDY    19  18  96 CALM      30.36F
HURON          CLOUDY    16  14  92 W6        30.36F WCI   7
MADISON        FAIR      12  12 100 NW9       30.32S WCI   0
MITCHELL       CLEAR     17  14  88 W5        30.38F WCI  10
SIOUX FALLS    CLEAR     14  12  92 NW6       30.33F WCI   5
WINNER         CLOUDY    34  30  85 W6        30.35F WCI  29
YANKTON        CLEAR     18  14  84 W7        30.38S WCI   9
$$

MNZ071-072-080-081-089-090-097-098-120800-
SOUTHWEST MINNESOTA

CITY           SKY/WX    TMP DP  RH WIND       PRES   REMARKS
FAIRMONT       CLEAR     13   6  74 NW18      30.27S WCI  -4
JACKSON        CLEAR     14   9  79 MISG      30.27F
LUVERNE        CLEAR     12   9  85 NW3       30.33S
MARSHALL       CLEAR     11   8  88 NW9       30.33S WCI  -2
MONTEVIDEO     CLEAR     10   7  85 NW8       30.33S WCI  -1
PIPESTONE      CLEAR     12  10  92 N6        30.29F WCI   3
REDWOOD FALLS  CLEAR     13   4  67 NW13      30.30R WCI  -2
TRACY          CLEAR     14  11  90 NW13      30.30S WCI   0
WINDOM           N/A     12   1  62 NW16G24   30.27S WCI  -4
WORTHINGTON    CLEAR     13  10  88 NW13      30.29F WCI  -2
$$

IAZ001>003-012>014-020>022-031-032-NEZ013-014-SDZ071-120800-
NORTHWEST IOWA

CITY           SKY/WX    TMP DP  RH WIND       PRES   REMARKS
CHEROKEE       CLEAR     16  12  84 NW8       30.32S WCI   5
DENISON        CLEAR     18  12  79 VRB3      30.33S
ESTHERVILLE    CLEAR     13   7  77 NW17      30.27S WCI  -4
LE MARS        CLEAR     18  14  86 N6        30.34F WCI   9
ORANGE CITY    CLEAR     18  16  93 N8        30.31F WCI   7
SHELDON        CLEAR     14  12  92 NW10      30.30S WCI   1
SIOUX CITY     CLEAR     16  13  88 NW6       30.36F WCI   7
SPENCER        CLEAR     15  10  80 NW15      30.30S WCI   0
STORM LAKE     CLEAR     14   9  79 N15       30.28F WCI  -1
$$

ABBREVIATIONS USED IN REMARKS
   TC - TEMPERATURE IN CELSIUS
  WCI - WIND CHILL INDEX
   HX - HEAT INDEX
  VSB - VISIBILITY





USA.gov is the U.S. government's official web portal to all federal, state and local government web resources and services.